Theta_e
302 302 302 302 302 302 302 302 302 302 303 303 303 303 303 303 303 302 298 302 297 293 294 296 297 295 296 296 293 299 298 306 307 305 301 302 301 305 305 307 306 305 303 303 304 300 297 313 309 304 313 317 315 315
302 302 302 302 302 302 302 302 302 302 302 303 303 303 303 302 303 303 297 301 300 292 294 299 299 300 300 299 295 296 297 299 303 304 308 306 300 306 305 301 309 305 310 307 308 306 319 316 315 318 319 316 317 317
302 301 301 301 302 302 302 302 302 302 302 303 303 303 303 303 303 303 300 300 297 293 294 295 296 301 304 303 303 292 297 301 307 307 305 306 303 304 297 304 303 309 310 310 310 314 315 316 317 318 317 317 319 319
301 301 301 302 302 302 302 302 302 302 302 302 302 303 303 303 303 302 300 300 298 293 287 292 300 298 302 304 305 303 301 305 305 302 303 305 304 309 305 303 301 306 308 307 309 312 314 316 317 318 317 318 318 318
301 301 301 301 302 302 301 301 302 302 302 302 302 302 303 303 302 303 303 302 301 292 288 290 297 300 303 302 299 301 302 300 297 295 295 302 310 308 308 305 304 308 307 306 306 314 314 314 319 320 316 316 317 316
301 301 301 301 302 301 301 301 301 301 302 302 303 303 303 302 301 300 294 302 301 299 289 287 298 297 301 302 302 300 300 300 299 296 298 297 309 308 305 302 310 313 315 317 313 318 318 320 322 319 317 317 317 317
301 301 301 301 301 301 301 301 301 301 301 302 302 302 302 302 302 295 293 300 301 300 290 286 291 299 300 303 303 300 302 299 299 298 297 301 304 305 305 303 310 311 313 315 316 317 315 318 316 319 319 318 316 318
300 300 301 301 301 301 301 301 301 302 302 302 302 302 302 301 300 297 302 302 302 295 293 285 288 294 301 296 298 302 297 298 298 297 299 298 304 304 299 309 311 312 312 313 315 317 318 320 319 318 318 316 315 314
300 301 301 301 302 301 301 301 302 302 302 302 301 301 300 298 293 296 300 300 302 296 287 288 285 288 300 298 298 300 299 293 300 295 296 299 297 298 303 307 310 311 311 313 315 316 316 317 316 316 316 315 314 313
301 301 301 302 302 302 302 302 302 302 302 301 299 294 291 297 300 301 297 292 290 291 293 287 293 289 295 295 293 295 300 295 292 296 300 295 295 303 307 308 310 311 310 313 312 312 314 315 315 315 315 316 316 314
301 301 301 302 301 301 301 301 301 301 300 295 292 292 299 299 300 296 287 286 288 283 289 289 290 288 295 289 290 295 294 298 291 296 295 294 294 299 304 306 309 310 310 310 313 316 317 317 316 316 316 316 316 315
301 301 302 302 301 301 301 301 301 299 296 296 297 299 300 295 290 285 285 287 284 284 291 290 291 293 294 297 292 294 293 295 290 302 296 292 299 304 304 304 306 308 309 310 311 311 314 316 317 318 317 316 316 315
300 300 301 301 301 301 301 301 301 299 298 299 295 290 290 288 281 281 280 284 284 291 294 293 290 292 295 295 293 293 289 290 302 296 293 298 305 306 307 308 309 311 311 309 310 310 311 315 317 317 316 316 316 314
301 300 300 300 301 300 301 300 300 299 298 291 287 280 283 282 284 286 287 288 292 293 293 293 290 287 293 292 293 288 294 297 289 287 291 301 306 307 309 309 310 310 310 309 309 309 311 315 315 316 316 316 315 313
300 300 300 300 300 301 301 300 299 300 295 287 288 280 283 288 292 291 292 290 292 292 290 291 292 291 290 290 292 291 288 287 290 290 297 305 308 308 308 309 309 309 311 313 310 309 310 315 315 315 316 316 315 314
300 299 300 299 299 301 300 298 297 298 295 290 287 285 289 288 289 291 291 290 296 295 296 293 290 288 288 291 287 286 286 286 291 300 305 308 309 310 311 311 310 310 309 313 315 311 312 315 315 316 316 316 315 314
299 299 300 300 299 299 299 298 297 290 290 287 288 292 290 290 289 291 292 292 296 293 289 288 283 285 293 289 287 290 288 295 301 304 307 309 309 310 310 310 310 310 309 311 314 314 313 315 316 315 313 315 316 316
299 302 299 299 300 299 301 299 294 290 285 289 287 290 292 292 291 292 293 296 295 293 291 290 293 287 286 286 290 297 300 304 304 304 306 308 309 310 310 311 311 312 312 312 312 314 314 314 314 314 316 316 315 314
300 301 299 299 299 298 294 293 295 287 288 291 292 293 293 292 294 295 296 297 297 297 295 293 288 286 288 292 294 299 301 301 300 303 305 308 309 309 309 310 312 312 313 312 313 314 314 315 315 316 315 315 313 313
299 299 299 299 299 295 287 289 297 289 287 292 293 292 293 293 296 296 296 297 297 294 290 287 290 293 292 294 296 295 300 302 301 301 302 305 308 309 310 310 311 312 312 314 314 306 314 314 316 316 315 314 313 312
297 300 298 299 299 296 293 290 290 291 291 291 293 293 293 296 295 295 296 300 294 294 293 296 297 301 302 302 304 305 305 304 303 303 302 302 305 308 309 308 311 312 311 311 311 311 308 313 314 315 314 314 315 314
300 298 296 297 293 292 291 294 291 293 291 292 292 294 292 292 294 297 300 295 295 296 296 296 298 301 302 302 302 303 303 304 306 304 299 302 304 306 307 306 307 306 308 310 312 311 312 314 315 314 315 313 311 312
297 297 293 292 288 288 287 296 288 290 285 288 292 290 292 294 296 298 293 296 296 299 302 302 303 303 302 302 303 304 305 303 304 306 306 305 308 308 308 309 308 305 305 309 311 310 312 305 308 313 312 311 310 308
297 291 288 287 286 285 291 288 290 288 289 288 288 287 290 291 293 290 290 290 297 301 302 302 302 300 301 301 300 301 302 302 303 305 308 308 306 307 307 306 307 308 309 309 310 311 311 312 304 310 310 309 308 308
287 287 287 284 288 285 284 285 286 286 285 287 286 286 287 289 288 288 287 294 298 300 300 299 298 297 296 298 298 298 301 301 301 302 304 307 303 304 304 306 307 309 312 310 310 309 308 309 309 309 309 308 308 308
283 287 285 287 288 285 287 286 287 287 288 287 288 291 291 289 288 287 292 296 298 300 299 297 296 296 296 297 297 297 300 305 303 301 302 305 303 302 303 305 306 308 312 310 308 307 307 307 307 307 307 306 295 307
285 287 291 295 292 291 290 291 292 290 288 287 291 292 292 286 287 292 298 300 299 301 303 300 300 299 297 297 299 302 303 302 301 302 304 305 306 308 307 307 306 309 312 310 309 309 307 307 307 307 307 308 309 309
290 291 287 291 292 294 290 291 289 288 290 294 295 290 288 289 289 295 297 301 302 301 302 302 303 302 303 301 305 307 306 305 305 306 307 307 308 308 309 309 309 294 311 312 311 310 310 309 308 308 307 306 308 308
290 293 293 290 291 292 292 291 291 294 297 296 292 290 291 294 296 297 300 300 303 300 298 297 300 303 304 308 308 307 307 307 303 300 299 299 301 304 308 308 309 309 310 308 288 300 309 306 307 308 309 310 308 304
290 295 291 290 289 289 293 296 296 299 300 300 301 298 296 297 300 303 300 300 299 297 296 297 298 301 301 302 305 304 307 308 306 303 301 301 301 305 307 307 307 308 309 309 308 304 291 302 299 306 305 306 306 303
295 295 291 292 291 294 296 299 302 302 301 301 302 300 298 298 301 301 298 299 299 296 294 293 296 300 297 300 302 303 303 308 308 308 307 308 307 308 308 308 308 308 308 307 308 308 307 305 304 302 301 301 303 303
294 291 291 288 291 296 297 295 296 296 297 298 298 301 300 297 293 297 297 296 293 292 290 292 293 294 298 305 307 306 290 309 309 309 309 309 309 309 309 309 309 309 308 307 307 307 305 304 305 304 301 300 301 302
293 294 294 293 293 291 295 294 293 293 297 297 297 299 297 295 291 295 299 297 292 291 291 293 294 297 304 306 307 306 301 305 295 287 289 288 288 296 308 309 307 308 308 308 306 306 305 303 303 303 300 299 298 297
Wind_Speed
12 12 12 13 13 14 14 13 13 13 13 12 10 10 9 9 9 7 3 1 6 6 14 15 14 13 10 8 8 11 9 6 6 6 3 2 5 6 7 10 18 12 12 9 9 12 6 14 11 8 7 7 9 8
13 13 13 14 15 14 15 14 14 13 13 12 10 10 9 9 8 8 5 2 1 6 9 17 19 19 18 16 11 5 9 7 4 6 3 5 3 4 4 6 2 7 3 5 8 5 9 16 4 7 6 10 9 9
14 14 14 15 16 16 16 15 14 13 13 13 12 10 10 9 10 7 5 3 4 7 13 11 7 3 9 14 14 7 6 4 2 5 5 4 6 5 3 2 3 3 2 3 6 8 10 13 6 9 7 7 8 9
15 15 16 16 16 16 15 15 14 14 14 13 12 12 11 10 10 9 7 4 3 4 6 5 2 8 6 8 11 18 15 5 6 4 6 5 4 3 10 8 3 5 2 3 3 4 6 8 12 11 9 10 11 12
16 17 17 17 17 15 14 15 15 15 13 13 13 13 12 11 9 9 7 6 6 5 7 11 19 11 3 9 18 16 14 12 8 4 3 5 3 4 4 3 10 9 8 10 6 7 9 9 14 14 14 14 14 15
17 18 18 18 17 15 16 16 16 15 15 15 15 14 13 8 5 6 4 4 3 4 4 6 8 7 9 7 9 12 12 9 7 6 5 4 5 5 5 8 6 16 7 2 1 5 2 2 13 16 16 15 14 13
16 16 16 16 16 17 18 17 17 16 16 16 15 14 12 8 6 5 6 3 7 3 3 6 6 3 5 6 5 6 9 7 7 7 8 8 4 4 6 7 7 5 4 3 3 4 7 10 8 14 15 15 12 13
16 17 18 18 19 19 19 18 18 18 18 17 15 13 8 6 5 7 8 14 8 3 4 5 7 7 2 3 5 5 7 7 7 7 5 8 7 5 6 11 7 3 1 3 6 4 3 8 14 15 16 16 16 15
18 18 19 19 20 20 21 20 19 19 16 9 8 3 4 5 4 2 6 5 7 6 3 4 5 3 2 0 3 5 6 7 5 8 9 7 10 11 7 10 12 7 3 2 6 6 6 11 14 16 17 17 16 15
18 20 20 19 17 14 15 17 16 13 9 5 5 4 5 4 11 6 3 3 3 4 6 7 8 9 5 3 1 4 5 7 8 10 6 10 13 15 8 9 11 6 3 3 5 8 8 10 13 16 16 14 13 14
17 16 17 13 13 16 14 12 12 9 7 2 4 4 5 6 4 4 3 4 5 4 6 7 12 12 6 7 3 5 3 5 5 7 10 7 8 15 15 13 10 9 6 4 5 5 6 6 11 13 14 13 13 15
15 16 15 15 12 13 13 11 9 7 3 5 3 0 3 4 3 5 5 5 5 6 7 7 4 6 4 3 6 5 4 4 7 7 6 6 5 7 16 19 18 13 10 11 9 10 8 4 5 10 12 13 14 14
11 14 13 13 10 13 8 5 14 17 7 1 2 4 3 3 6 6 8 5 5 5 2 3 2 3 4 6 5 4 5 6 4 5 4 1 11 7 6 5 6 6 8 12 12 11 8 6 7 11 13 13 15 15
13 9 8 12 11 5 15 19 20 13 4 2 4 4 5 5 6 5 6 8 7 7 9 7 2 3 4 7 4 6 5 4 3 3 4 5 7 7 6 4 2 3 3 6 9 11 9 9 9 11 13 15 16 16
6 6 7 8 11 3 16 18 9 0 1 3 3 5 8 7 2 2 5 4 6 5 4 4 4 4 5 5 5 5 5 6 6 7 5 7 6 5 5 3 2 2 1 2 5 8 10 10 11 12 13 14 15 15
7 5 5 4 11 10 14 9 3 3 2 3 4 6 6 6 6 5 6 7 2 5 3 3 4 4 6 4 6 8 6 5 4 3 5 4 3 2 1 1 2 3 4 3 2 6 9 11 12 13 15 15 15 16
6 4 7 10 9 9 6 3 4 4 3 4 5 5 7 8 7 6 6 6 5 6 2 3 4 7 3 4 5 6 7 1 4 3 3 3 2 3 5 5 4 4 5 4 3 5 9 10 12 14 16 15 15 14
2 4 4 3 5 3 2 3 3 3 5 6 6 4 4 7 8 7 5 3 4 2 3 3 5 2 3 4 7 2 2 1 3 3 3 3 3 4 5 6 6 6 6 6 5 5 10 12 14 12 16 16 15 14
6 4 3 2 5 4 2 3 3 4 5 5 5 6 5 7 7 8 7 6 4 4 5 3 4 3 3 3 7 7 4 4 4 4 4 6 6 6 6 6 7 7 7 6 5 6 9 13 11 12 13 14 12 12
8 6 6 4 4 3 3 2 2 5 5 3 6 7 6 6 6 6 6 5 5 3 4 4 5 3 3 6 6 6 7 7 6 6 6 5 5 6 6 6 5 4 5 3 5 4 9 11 10 11 12 13 13 12
3 3 2 4 2 4 3 2 5 4 5 5 6 6 6 4 6 6 3 1 4 4 4 3 6 6 7 9 8 7 8 7 8 8 9 7 5 4 4 4 6 4 5 4 6 7 7 10 11 12 13 12 11 11
1 5 2 1 3 3 4 4 4 3 4 5 6 4 4 4 3 2 2 3 4 3 5 5 6 8 8 8 8 9 10 9 9 8 9 8 8 7 5 4 5 5 6 7 8 10 9 10 11 12 12 12 12 12
2 3 2 3 3 3 4 1 4 4 4 3 3 4 3 2 2 5 3 3 4 4 7 7 9 10 11 11 11 11 8 7 8 7 6 7 6 4 6 4 5 5 5 7 8 9 10 12 11 13 14 13 13 13
2 2 1 2 3 4 2 4 3 3 3 3 3 4 3 3 3 2 2 2 6 7 7 11 9 9 9 11 8 7 5 5 7 7 7 7 5 6 5 5 4 5 6 7 10 11 12 12 13 13 13 15 15 14
4 2 3 4 3 3 4 3 3 3 4 3 3 2 1 2 2 1 1 5 7 8 10 10 9 8 8 7 7 8 10 8 7 4 2 5 7 6 4 3 6 8 8 11 13 14 14 13 12 13 14 14 16 16
3 2 3 3 2 3 2 3 3 3 2 1 2 2 1 2 4 3 6 9 9 11 11 9 8 6 8 6 6 8 8 4 6 7 4 6 7 8 8 11 12 12 11 11 13 15 14 13 13 16 14 14 11 17
3 4 1 2 4 5 4 2 5 3 4 5 3 3 1 3 5 4 7 9 8 11 10 8 8 5 7 7 7 6 8 10 8 5 5 5 1 4 8 11 12 10 11 12 13 14 16 16 16 15 14 13 13 14
3 5 7 8 4 2 6 7 6 7 5 6 3 8 5 6 4 5 4 9 11 10 9 8 7 7 5 3 4 4 5 4 4 8 9 10 11 11 13 12 11 13 9 9 11 12 13 13 14 14 15 14 13 11
2 4 5 6 5 3 6 7 6 5 5 5 6 4 3 2 4 4 7 9 9 9 10 12 11 9 8 7 5 5 5 4 10 17 17 12 11 10 9 10 10 10 9 9 12 8 17 11 12 13 13 13 13 10
3 4 4 5 5 5 5 5 5 4 4 3 3 4 3 0 4 8 10 11 12 11 9 8 8 8 10 10 9 10 7 6 8 9 10 12 10 9 9 9 9 9 10 11 13 14 13 15 13 12 11 11 11 11
3 3 3 2 3 4 6 5 2 1 1 1 0 2 5 4 1 9 12 12 11 10 10 12 11 11 11 11 9 9 10 10 13 13 10 9 9 9 9 9 8 8 9 10 10 12 14 13 12 12 12 12 14 14
3 4 4 4 3 5 5 5 4 3 3 2 3 2 3 3 4 5 7 12 11 12 14 12 11 10 11 8 7 5 4 8 7 7 8 8 8 8 8 8 8 8 9 11 8 9 14 12 11 14 13 15 13 16
2 1 2 2 2 2 3 5 3 2 2 2 4 5 7 4 5 5 5 8 10 9 11 12 11 10 9 8 8 8 9 10 10 9 9 10 9 6 7 9 6 8 9 10 10 9 15 16 12 16 16 14 16 18
Wind_Direction
304 306 307 306 305 305 304 306 308 311 315 312 310 317 321 328 342 316 320 264 327 289 295 277 291 279 278 261 279 3 294 186 271 249 193 283 269 256 267 203 181 181 183 202 197 216 215 141 152 216 101 118 146 161
290 291 294 297 297 298 297 298 299 298 298 303 304 305 304 310 317 318 276 124 261 253 287 313 284 275 274 278 299 262 318 312 350 290 257 148 288 286 352 199 178 235 260 166 209 197 113 170 211 159 158 155 164 164
291 294 295 293 291 290 290 292 293 296 297 294 296 291 297 293 299 296 285 300 258 273 280 249 256 228 234 237 238 253 229 282 210 335 311 288 232 135 299 350 325 173 237 210 161 156 160 184 154 166 175 145 151 146
292 293 291 291 292 289 287 286 283 286 288 290 293 290 282 282 286 302 276 273 286 294 279 304 294 261 239 223 215 220 263 303 318 319 288 259 262 234 188 192 233 335 236 191 166 140 158 190 191 171 148 136 135 137
289 288 286 288 291 290 292 291 286 282 280 281 282 282 275 282 279 279 265 265 254 247 318 304 300 274 298 231 236 227 225 243 250 252 267 254 273 234 180 271 194 167 203 232 227 193 219 197 180 169 159 154 149 144
293 288 283 282 286 284 284 284 283 280 278 276 277 278 275 264 281 273 240 170 172 183 257 285 351 286 288 246 227 214 212 221 231 217 225 250 303 267 244 204 153 177 201 293 292 339 185 76 161 167 159 151 151 150
294 294 294 291 286 284 283 283 280 278 274 275 272 266 271 240 231 243 349 39 119 81 278 286 269 158 292 269 192 193 193 210 227 225 236 234 188 245 259 231 147 159 216 199 199 160 166 167 158 158 147 143 145 138
295 295 292 288 285 283 281 280 278 276 271 264 258 252 246 248 253 250 243 183 186 256 234 269 270 261 36 315 209 170 180 204 203 239 230 234 197 210 249 222 169 138 52 206 201 180 352 132 143 146 143 148 148 146
301 298 294 289 284 279 275 274 272 272 271 264 249 174 223 223 215 231 103 148 197 262 248 239 269 331 2 213 341 229 194 195 191 218 224 224 214 219 214 214 232 229 226 22 165 168 157 160 154 154 157 163 161 155
303 299 295 293 289 293 281 271 256 256 264 161 122 203 212 176 105 150 160 181 184 224 230 255 247 255 330 312 315 267 227 239 187 207 196 229 239 228 234 230 237 164 146 191 185 188 169 169 169 171 176 174 169 161
307 315 314 304 297 293 291 284 231 235 135 119 189 218 79 119 201 203 211 209 183 227 234 244 244 257 223 257 278 273 348 288 238 169 205 213 220 215 217 224 225 226 234 235 270 285 197 201 182 174 173 173 161 159
308 314 324 316 303 308 295 270 221 162 162 171 162 268 159 211 233 238 205 164 221 252 182 232 224 222 220 208 236 230 251 277 244 139 223 229 185 173 207 215 227 232 255 252 237 244 246 234 232 171 166 164 158 157
329 331 335 349 325 326 320 160 130 117 136 91 217 163 220 188 235 232 208 187 212 224 259 219 191 288 199 226 223 255 230 243 291 215 229 288 108 138 155 172 202 227 248 248 232 234 240 204 171 162 155 156 154 151
306 321 344 350 352 7 125 128 130 139 206 163 160 191 233 190 229 274 334 335 330 296 306 302 174 237 235 194 240 239 225 261 229 228 223 149 137 123 126 113 157 190 237 246 231 224 214 192 162 158 157 157 156 156
3 337 354 8 4 102 139 139 141 151 139 208 209 241 215 247 232 190 244 266 264 266 263 264 231 218 208 226 219 239 220 229 222 204 199 118 125 127 118 95 70 40 32 241 228 214 199 176 165 158 155 158 157 150
328 272 8 52 56 87 125 92 26 328 228 236 233 257 247 253 247 220 249 266 339 312 261 213 268 213 217 222 204 223 231 240 140 75 65 134 151 114 5 339 345 337 343 322 268 226 199 165 170 160 154 159 154 154
301 33 21 127 131 128 144 213 212 242 267 242 232 232 273 285 286 304 315 318 328 289 335 305 246 225 310 229 237 229 227 346 43 71 89 40 1 342 319 308 302 301 292 302 281 213 204 169 157 154 157 159 153 154
35 99 99 121 211 211 223 232 246 249 257 247 259 286 267 274 287 294 292 280 268 291 207 264 293 267 230 260 233 184 257 287 266 311 317 319 276 282 296 291 299 294 291 293 288 223 187 172 167 167 156 153 149 145
351 340 22 343 314 296 255 212 235 259 256 288 278 269 269 280 279 273 274 277 257 291 296 296 270 241 240 262 289 298 330 344 319 300 301 281 280 273 280 278 279 278 285 286 256 202 180 179 178 162 157 158 151 151
294 266 260 298 291 268 244 245 288 282 283 343 281 268 268 277 304 295 284 267 236 217 205 220 238 267 227 233 226 254 275 279 275 281 265 255 244 245 263 290 271 308 270 230 191 177 169 180 174 155 161 161 155 152
267 102 197 242 232 241 284 281 240 247 301 273 290 293 286 292 266 280 288 199 234 231 242 225 309 327 307 279 283 275 268 262 263 260 266 274 256 267 279 259 251 244 235 187 188 167 183 164 159 163 156 152 147 149
196 93 321 327 263 227 249 227 268 317 263 283 293 252 268 266 264 260 335 247 253 16 1 311 296 285 294 295 294 296 292 288 286 280 272 263 249 241 232 225 220 211 234 206 180 169 165 159 145 149 148 132 138 130
177 209 202 232 255 224 261 237 246 220 253 269 274 256 232 257 10 340 263 352 10 274 268 279 294 296 284 287 277 279 262 275 266 250 237 235 255 219 222 191 186 192 213 186 160 147 149 141 157 132 133 135 127 129
132 256 250 243 226 269 270 229 232 256 245 242 257 278 358 353 342 278 316 304 272 291 307 333 331 323 322 325 314 325 320 285 280 280 261 228 191 163 165 173 183 177 182 148 143 134 150 136 132 141 135 133 137 146
255 153 245 237 217 237 242 236 227 241 253 220 235 238 265 238 256 44 360 353 3 354 356 350 337 328 320 327 331 302 279 246 249 201 207 145 119 111 113 159 166 149 153 144 146 133 138 144 130 135 138 141 147 135
281 176 239 286 265 247 279 303 329 281 286 331 20 316 332 316 35 34 353 350 340 348 348 332 327 334 326 301 303 321 342 12 100 95 88 113 122 131 156 144 135 135 136 131 131 124 123 124 126 136 136 134 122 134
329 18 308 236 276 266 263 289 282 309 358 19 353 328 165 73 49 9 350 4 331 333 338 336 318 315 291 334 348 354 5 26 35 56 66 63 313 165 127 117 111 111 125 129 130 131 131 132 136 139 141 137 144 143
329 341 339 334 313 346 335 40 15 9 5 348 323 27 34 32 11 341 328 331 331 334 333 334 356 343 354 347 356 28 40 52 90 131 118 89 70 76 83 82 74 57 97 113 124 128 130 130 133 141 145 140 131 136
295 345 312 340 0 26 28 15 19 29 349 6 52 53 51 32 328 328 332 343 347 358 355 351 356 360 5 14 36 26 6 18 96 83 81 82 84 78 80 89 92 91 95 89 41 89 110 123 128 134 136 133 124 127
33 350 316 356 5 49 32 1 357 14 22 25 85 122 126 144 14 18 3 358 4 7 351 339 339 358 4 12 9 56 36 43 57 80 90 90 92 94 91 92 96 100 103 105 105 101 103 109 106 109 111 122 129 128
334 314 305 329 342 27 2 333 295 234 335 59 287 52 120 149 126 45 12 1 4 356 359 360 355 3 359 356 13 22 58 54 68 76 86 92 92 88 84 91 99 106 114 123 131 131 136 136 130 124 123 128 135 134
329 15 342 324 345 348 338 340 345 6 11 18 72 102 119 104 49 39 12 5 358 358 353 352 348 339 335 338 21 41 263 50 56 59 71 84 95 104 100 89 95 109 112 108 115 128 117 128 141 135 133 133 131 131
278 283 264 283 280 302 14 323 355 19 62 45 55 57 54 50 59 38 4 21 2 342 340 334 322 319 329 27 34 66 65 66 53 34 33 30 23 24 101 99 96 103 107 115 116 124 115 117 124 126 124 121 120 124